Regional Weather Roundup
Issued by NWS Upton, NY

Current Version | Previous Version | Graphics & Text | Print | Product List | Glossary Off
Versions: 1 2 3 4 5 6 7 8 9 10 11 12 13 14 15 16 17 18 19 20 21 22 23 24 25 26 27 28 29 30 31 32 33 34 35 36 37 38 39 40 41 42 43 44 45 46 47 48 49 50

613
ASUS41 KOKX 160409
RWROKX

REGIONAL WEATHER ROUNDUP
NATIONAL WEATHER SERVICE NEW YORK NY
1200 AM EDT MON OCT 16 2017

NOTE: "FAIR" INDICATES FEW OR NO CLOUDS BELOW 12,000 FEET WITH NO
SIGNIFICANT WEATHER AND/OR OBSTRUCTIONS TO VISIBILITY.

NYZ071-072-176-178-NJZ106-104-160500-
NEW YORK CITY METRO AREA

CITY           SKY/WX    TMP DP  RH WIND       PRES   REMARKS
Central Park   MOCLDY    69  64  84 VRB5      29.82F
Bronx Bot Gard   N/A     68  63  83 SW9       29.82R
LaGuardia APRT MOCLDY    69  64  84 S12       29.79F
Kennedy INTL   PTCLDY    67  66  97 SW13      29.82F
Breezy Point     N/A     66 N/A N/A SW7         N/A
Newark/Liberty MOCLDY    69  65  86 SW16G24   29.80F
Teterboro      PTCLDY    69  65  86 SW14      29.78F
$$

NYZ177-179-078>081-160500-
LONG ISLAND NEW YORK

CITY           SKY/WX    TMP DP  RH WIND       PRES   REMARKS
Jones Beach      N/A     66 N/A N/A SW9G17      N/A
Matinecock PT    N/A     68 N/A N/A SW13        N/A
Farmingdale    CLOUDY    68  66  93 SW15      29.81F
MacArthur/ISP  CLOUDY    68  67  96 SW16G26   29.80F
Shirley        CLOUDY    70  67  90 SW12G25   29.82F
Mt Sinai Harb    N/A    N/A N/A N/A S12G18      N/A
Westhampton    NOT AVBL
East Hampton   CLOUDY    66  64  93 SW12G21   29.82F
Montauk          N/A     67  66  97 SW13G23   29.82F
$$

NYZ052-065-067-160500-
HUDSON VALLEY

CITY           SKY/WX    TMP DP  RH WIND       PRES   REMARKS
White Plains   CLOUDY    69  64  84 W8        29.80S
Larchmont Harb   N/A     68 N/A N/A S16         N/A
Croton On Huds   N/A     70 N/A N/A SW12G17     N/A
Newburgh       RAIN      68  66  94 NW12      29.81R
Montgomery     LGT RAIN  66  63  90 W13       29.80R FOG
Poughkeepsie   RAIN      66  62  87 S5        29.77S FOG
Albany         CLOUDY    61  59  93 SE3       29.77S
$$

NJZ001-105-106-008-010-013-015-019>022-104-160500-
NEW JERSEY

CITY           SKY/WX    TMP DP  RH WIND       PRES   REMARKS
Newark/Liberty MOCLDY    69  65  86 SW16G24   29.80F
Teterboro      PTCLDY    69  65  86 SW14      29.78F
Caldwell       CLOUDY    68  66  93 MISG      29.80S
Somerville     CLOUDY    68  65  90 CALM      29.80S
Linden         CLOUDY    68  64  87 CALM      29.81S
Perth Amboy      N/A     66 N/A N/A SW10        N/A
Sussex         HVY RAIN  67  65  93 W3        29.82R FOG
Andover          N/A     66  65  96 S6        29.83R
Trenton        MOCLDY    68  66  93 SW7       29.81F
Millville      CLEAR     73  68  84 SW9       29.85F
Atlantic City  MOCLDY    70  67  90 SW9       29.85F
Wrightstown    CLOUDY    66  64  94 SW10      29.82F
Toms River       N/A     68  66  93 SW10      29.84F
Belmar         PTCLDY    68  65  90 S12       29.83
$$

PAZ047>061-062-071-160500-
EASTERN PENNSYLVANIA

CITY           SKY/WX    TMP DP  RH WIND       PRES   REMARKS
Philadelphia   CLOUDY    70  65  84 SW9       29.83F
Allentown      LGT RAIN  68  64  87 W8        29.84R FOG
Scranton       LGT RAIN  65  62  90 NW7       29.86S
$$

CTZ002-004>006-009-010-012-RIZ004-006-007-MAZ004-011-015-160500-
SOUTHERN NEW ENGLAND
 IN CT

CITY           SKY/WX    TMP DP  RH WIND       PRES   REMARKS
Bradley INTL   CLOUDY    68  61  78 SW12      29.75F
Hartford       CLOUDY    70  62  76 SW10G21   29.76S
Danbury        CLOUDY    69  63  81 SW12      29.80F
Wtrbury/Oxford CLOUDY    66  62  87 VRB6      29.80F
Norwalk Harbor   N/A     68 N/A N/A S12         N/A
Bridgeport     CLOUDY    69  65  86 SW16      29.79F
Meriden        CLOUDY    69  62  78 VRB7      29.78F
New Haven      CLOUDY    69  65  86 SW14      29.79S
Chester        CLOUDY    68  64  88 SW10G16   29.79F
Groton         CLOUDY    68  64  87 SW14      29.79F
Wilimantic     CLOUDY    69  63  81 SW12G21   29.77F

 IN RI

CITY           SKY/WX    TMP DP  RH WIND       PRES   REMARKS
Providence     CLOUDY    69  64  84 SW21G30   29.77F
Block Island   CLOUDY    65  64  97 SW18G24   29.82F FOG
Westerly       CLOUDY    68  65  90 SW14G24   29.81F
 IN MA

CITY           SKY/WX    TMP DP  RH WIND       PRES   REMARKS
Boston         MOCLDY    69  62  78 SW23G31   29.71S
Worcester      CLOUDY    65  59  81 SW21G28   29.75S
Westfield      CLOUDY    68  61  78 SW13      29.74R
Provincetown   CLOUDY    65  62  90 SW21G31   29.75F
Nantucket      CLOUDY    65  64  97 SW22      29.84S
$$

ANZ330-335-338-340-345-350-353-355-160500-
COASTAL MARINE OBSERVATIONS


STATION/POSITION TIME  SKY/WX   TEMP    WIND        PRES    VSBY  WAVE
                                AIR SEA DIR/SP/G                  HT/PER
                 (UTC)          (F)     (DEG/KT/KT) (MB)    (MI)  (FT/S)
NY HARB ENTRANCE 0250            68 67  210/ 19/ 23 1009.2          5/ 6
20 S FIRE ISLAND 0250            67 65  220/ 21/ 27 1010.2          7/ 6
GREAT SOUTH BAY  0330            67 66  220/ 17/ 21   N/A
15 E BARNEGAT LI 0330               68                N/A           7/ 6
HUDSON CANYON    0250            67 66  210/ 19/ 25 1011.6          7/ 6
KINGS POINT      0348            68 69  240/ 11/ 14 1009.7
EXECUTION ROCKS  0345            70     190/ 16/ 21   N/A
WESTERN LI SOUND 0249            69     220/ 16/ 21   N/A           2/ 3
CENTRAL LI SOUND NOT AVBL
EASTERN LI SOUND NOT AVBL
ROBBINS REEF     0348            68     220/ 12/ 15 1009.9
$$


>>>>>>>>>>>>>>>>>>>>>>>>>>>> KEY <<<<<<<<<<<<<<<<<<<<<<<<<<<
>                                                          <
>     SKY/WX - Sky Condition/Present Weather               <
>     TMP    - Temperature in Fahrenheit                   <
>     DP     - Dew Point in Fahrenheit                     <
>     RH     - Relative Humidity in Percent                <
>     WIND   - Direction (from) and Speed in MPH           <
>     PRES   - Mean Sea Level Pressure (inches of Hg)      <
>     WCI    - Wind Chill Index                            <
>     VSB    - VISIBILITY IN MILES                         <
>     HX     - HEAT INDEX                                  <
>     TC     - TEMPERATURE IN CELSIUS                      <
>     VRB    - VARIABLE WIND DIRECTION                     <
>                                                          <
>>>>>>>>>>>>>>>>>>>>>>>>>>>> KEY <<<<<<<<<<<<<<<<<<<<<<<<<<<




USA.gov is the U.S. government's official web portal to all federal, state and local government web resources and services.